TimeEST,TemperatureF,Dew PointF,Humidity,Sea Level PressureIn,VisibilityMPH,Wind Direction,Wind SpeedMPH,Gust SpeedMPH,PrecipitationIn,Events,Conditions,WindDirDegrees,DateUTC
12:53 AM,48.9,46.0,90,30.12,10.0,Calm,Calm,-,N/A,,Clear,0,2013-01-21 05:53:00
1:53 AM,48.0,46.0,93,30.11,1.8,Calm,Calm,-,N/A,,Clear,0,2013-01-21 06:53:00
1:57 AM,48.2,46.4,93,30.11,3.0,Calm,Calm,-,N/A,,Clear,0,2013-01-21 06:57:00
2:40 AM,48.2,46.4,93,30.10,2.0,Calm,Calm,-,N/A,,Clear,0,2013-01-21 07:40:00
2:50 AM,48.2,46.4,93,30.10,3.0,Calm,Calm,-,N/A,,Clear,0,2013-01-21 07:50:00
2:53 AM,48.0,46.9,96,30.10,3.0,Calm,Calm,-,N/A,,Clear,0,2013-01-21 07:53:00
3:18 AM,46.4,46.4,100,30.10,2.0,Calm,Calm,-,N/A,,Clear,0,2013-01-21 08:18:00
3:28 AM,46.4,44.6,93,30.10,5.0,Calm,Calm,-,N/A,,Clear,0,2013-01-21 08:28:00
3:53 AM,46.9,45.0,93,30.09,3.0,Calm,Calm,-,N/A,,Clear,0,2013-01-21 08:53:00
4:53 AM,46.9,45.0,93,30.08,5.0,Calm,Calm,-,N/A,,Clear,0,2013-01-21 09:53:00
5:53 AM,46.0,44.1,93,30.08,8.0,Calm,Calm,-,N/A,,Clear,0,2013-01-21 10:53:00
6:53 AM,45.0,44.1,97,30.09,8.0,Calm,Calm,-,N/A,,Clear,0,2013-01-21 11:53:00
7:53 AM,48.0,45.0,89,30.11,10.0,West,3.5,-,N/A,,Mostly Cloudy,280,2013-01-21 12:53:00
8:53 AM,53.1,44.1,71,30.13,10.0,West,4.6,-,N/A,,Clear,280,2013-01-21 13:53:00
9:53 AM,57.0,42.1,57,30.14,10.0,NW,4.6,-,N/A,,Clear,320,2013-01-21 14:53:00
10:53 AM,60.1,41.0,49,30.15,10.0,WNW,5.8,-,N/A,,Clear,290,2013-01-21 15:53:00
11:53 AM,63.0,36.0,37,30.13,10.0,Variable,5.8,-,N/A,,Clear,0,2013-01-21 16:53:00
12:53 PM,64.9,36.0,34,30.08,10.0,Variable,5.8,-,N/A,,Clear,0,2013-01-21 17:53:00
1:53 PM,66.0,36.0,33,30.05,10.0,West,6.9,-,N/A,,Clear,280,2013-01-21 18:53:00
2:53 PM,66.0,37.0,34,30.04,10.0,West,6.9,-,N/A,,Clear,280,2013-01-21 19:53:00
3:53 PM,66.9,37.9,34,30.03,10.0,WNW,10.4,-,N/A,,Clear,290,2013-01-21 20:53:00
4:53 PM,64.0,37.0,37,30.04,10.0,West,6.9,-,N/A,,Clear,270,2013-01-21 21:53:00
5:53 PM,62.1,39.0,43,30.06,10.0,WNW,3.5,-,N/A,,Clear,300,2013-01-21 22:53:00
6:53 PM,59.0,39.9,49,30.07,10.0,Calm,Calm,-,N/A,,Clear,0,2013-01-21 23:53:00
7:53 PM,57.9,39.9,51,30.07,10.0,West,3.5,-,N/A,,Clear,280,2013-01-22 00:53:00
8:53 PM,57.9,39.9,51,30.09,10.0,WNW,3.5,-,N/A,,Clear,290,2013-01-22 01:53:00
9:53 PM,55.9,41.0,57,30.10,10.0,WNW,3.5,-,N/A,,Clear,290,2013-01-22 02:53:00
10:53 PM,57.0,39.0,51,30.11,10.0,NW,6.9,-,N/A,,Clear,320,2013-01-22 03:53:00
11:53 PM,55.9,39.0,53,30.11,10.0,NW,5.8,-,N/A,,Clear,310,2013-01-22 04:53:00